Tracking 17145 objects as of 24-May-2015
HD Live streaming from Space Station

AMC-6 (GE-6)

Track AMC-6 (GE-6) now!
AMC-6 (GE-6) is classified as:


NORAD ID: 26580
Int'l Code: 2000-067A
Perigee: 35,785.4 km
Apogee: 35,802.5 km
Inclination: 0.0 °
Period: 1,436.1 minutes
Semi major axis: 42164 km
RCS: 19.9526 m2 (large)
Launch date: October 21, 2000
Source: SOCIETE EUROPEENNE DES SATELLITES (SES)

Business (government and VSAT), media and entertainment; 28 Ku- and 24 C-band; CONUS, Canada, Mexico, Caribbean, Central America
Your satellite tracking list
Your tracking list is empty





NASA's NSSDC Master Catalog

Two Line Element Set (TLE):
1 26580U 00067A   15142.30588029 -.00000275  00000-0  10000-3 0  9991
2 26580 000.0174 336.2353 0002024 078.2360 223.2441 01.00270941 53431

Source of the keplerian elements: AFSPC

N2YO: 361